This demonstration page uses our WeatherBlox Daily Observations layout. Learn more.

38.89511, -77.03637

Hourly Observations for July 31, 2015

Temp ( °F °C ) Dew Point ( °F °C ) Humidity (%) Winds ( mph kmh ) Pressure ( in mb ) Visibility ( mi km ) Precip ( " mm )
12:52 am 00:52 Mostly Clear 81 27 70 21 70 70 Calm 29.91 1013 10 16.09344 0 0
1:52 am 01:52 Clear 81 27 63 17 54 54 NW 13 20 29.91 1013 10 16.09344 0 0
2:52 am 02:52 Clear 79 26 63 17 58 58 NNW 9 15 29.91 1013 10 16.09344 0 0
3:52 am 03:52 Clear 75 24 63 17 65 65 NNW 8 13 29.91 1013 10 16.09344 0 0
4:52 am 04:52 Clear 75 24 63 17 65 65 NNW 8 13 29.91 1013 10 16.09344 0 0
5:52 am 05:52 Mostly Clear 73 23 63 17 69 69 N 7 11 29.94 1014 10 16.09344 0 0
6:52 am 06:52 Mostly Sunny 75 24 63 17 65 65 NNW 8 13 29.94 1014 10 16.09344 0 0
7:52 am 07:52 Mostly Sunny 81 27 61 16 51 51 N 7 11 29.94 1014 10 16.09344 0 0
8:52 am 08:52 Sunny 82 28 63 17 51 51 NNW 9 15 29.97 1015 10 16.09344 0 0
9:52 am 09:52 Sunny 84 29 61 16 45 45 WNW 10 17 29.97 1015 10 16.09344 0 0
10:52 am 10:52 Sunny 88 31 63 17 43 43 NNW 9 15 29.94 1014 10 16.09344 0 0
11:52 am 11:52 Partly Cloudy 88 31 61 16 40 40 N 6 9 29.94 1014 10 16.09344 0 0
12:52 pm 12:52 Partly Cloudy 90 32 59 15 36 36 NW 9 15 29.94 1014 10 16.09344 0 0
1:52 pm 13:52 Partly Cloudy 91 33 61 16 36 36 N 6 9 29.94 1014 10 16.09344 0 0
2:52 pm 14:52 Partly Cloudy 90 32 59 15 36 36 N 6 9 29.91 1013 10 16.09344 0 0
3:52 pm 15:52 Partly Cloudy 91 33 57 14 32 32 N 15 24 29.88 1012 10 16.09344 0 0
4:52 pm 16:52 Partly Cloudy 90 32 57 14 33 33 N 10 17 29.88 1012 10 16.09344 0 0
5:52 pm 17:52 Mostly Sunny 91 33 61 16 36 36 NNW 6 9 29.88 1012 10 16.09344 0 0
6:52 pm 18:52 Mostly Sunny 90 32 61 16 38 38 N 8 13 29.85 1011 10 16.09344 0 0
7:52 pm 19:52 Sunny 88 31 57 14 35 35 N 7 11 29.85 1011 10 16.09344 0 0
8:52 pm 20:52 Clear 86 30 59 15 40 40 WSW 6 9 29.88 1012 10 16.09344 0 0
9:52 pm 21:52 Clear 82 28 61 16 48 48 SW 5 7 29.88 1012 10 16.09344 0 0
10:52 pm 22:52 Clear 81 27 63 17 54 54 SW 6 9 29.91 1013 10 16.09344 0 0
11:52 pm 23:52 Clear 81 27 63 17 54 54 WSW 5 7 29.91 1013 10 16.09344 0 0

Powered by AerisWeather